SHIJIAN-21 (SJ-21)

Last updated on Sat Nov 01 2025 00:02:50 GMT+0000 (Coordinated Universal Time)

1 49330U 21094A 25304.72764014 -.00000332 00000+0 00000+0 0 9997 2 49330 4.5992 62.5669 0055996 168.0441 200.0691 1.00272590 3076
UTC large
Height (km)
Speed (km/s)
/
Latitude / Longitude
Inclination (degrees)
Orbital Period (minutes)
Azimuth
Elevation
Range (km)
Doppler Factor

Next 0 passes for location: London (51.5072 / 0.1276)

Sorry there are no passes over London.